Wind_Speed
20 20 20 20 20 20 20 19 19 19 20 21 21 21 21 22 22 21 21 22 22 21 20 20 20 20 19 19 20 20 20 20 21 21 21 21 21 21 20 19 19 19 19
19 19 20 20 20 20 19 19 19 19 19 20 21 21 21 22 22 22 22 22 22 22 22 21 21 20 21 21 20 20 21 21 21 22 21 21 22 21 21 20 19 19 20
19 20 20 20 20 20 19 19 20 20 19 20 20 21 21 22 22 23 23 23 23 23 22 22 23 22 22 21 21 21 22 22 21 21 21 21 22 22 22 21 21 21 20
20 20 21 21 21 20 20 20 21 21 21 20 21 21 21 22 23 23 23 23 23 23 23 23 23 23 23 23 23 22 22 22 22 22 22 21 21 22 22 23 22 22 22
21 21 22 21 21 20 20 21 21 21 23 22 22 22 21 22 23 23 24 24 24 24 24 24 24 24 23 23 23 23 22 22 23 23 23 22 22 22 22 23 23 23 23
22 22 22 22 22 21 21 22 22 22 23 23 23 23 22 22 23 23 24 24 24 24 24 24 24 24 24 24 23 23 23 23 23 23 24 23 23 23 23 23 23 23 23
23 23 23 23 23 22 22 23 23 23 23 24 24 24 24 24 23 24 24 24 24 24 24 24 24 24 24 24 24 24 24 23 23 23 23 24 24 24 24 23 23 24 24
23 24 24 24 24 23 22 22 22 22 22 24 24 24 24 25 24 24 24 24 24 25 25 24 24 24 24 24 24 24 24 23 23 23 23 24 24 24 24 24 24 25 25
24 24 24 24 24 23 23 23 23 22 22 22 23 24 24 24 24 24 25 24 24 24 23 24 24 23 23 23 23 24 24 24 24 23 23 24 24 24 24 25 25 26 26
25 25 25 25 25 24 24 24 24 23 23 22 23 24 24 24 24 24 24 25 25 24 24 24 24 24 24 23 23 24 24 25 25 25 24 24 25 25 25 25 26 26 27
25 25 25 25 25 24 24 24 24 24 23 23 23 23 23 24 24 25 25 25 25 25 25 24 24 24 24 24 24 25 25 25 26 26 26 26 26 26 26 26 26 27 28
25 25 24 24 24 24 24 25 25 24 24 24 24 23 24 24 24 24 25 25 26 26 26 25 25 25 25 25 25 26 26 26 26 26 26 27 27 27 27 27 27 28 29
24 24 24 24 24 25 25 25 25 25 25 25 24 24 24 24 24 24 25 25 26 25 26 26 25 25 25 25 26 26 27 27 27 27 28 28 28 28 29 29 28 29 30
24 23 24 24 25 25 26 25 25 25 25 25 24 24 24 24 24 24 25 25 24 24 25 25 25 25 26 26 26 27 27 28 28 29 29 29 30 30 30 30 30 30 31
23 24 24 24 25 25 26 25 25 25 25 25 24 24 24 24 24 24 25 25 24 24 25 25 24 25 26 26 26 27 28 29 29 29 30 30 30 31 31 31 31 31 31
23 23 24 25 25 25 25 25 26 26 25 25 25 24 23 24 25 25 25 25 25 25 24 24 24 24 25 26 27 27 28 29 29 29 29 29 30 31 31 32 32 33 32
24 24 24 25 24 24 24 25 25 25 25 24 24 24 24 24 25 25 25 25 25 25 24 24 23 24 25 26 27 27 28 28 29 29 29 29 30 30 31 32 32 33 33
24 25 25 24 24 23 24 24 24 24 24 24 24 24 24 25 26 26 25 25 25 24 24 23 23 23 24 24 25 26 27 27 28 28 29 29 30 30 31 32 32 32 32
24 24 24 24 24 23 23 23 23 23 23 23 24 24 25 25 25 25 25 24 23 22 23 23 22 23 23 24 25 25 25 26 27 28 29 29 30 31 31 31 31 31 32
23 23 23 23 23 22 23 23 23 23 23 23 23 24 25 25 25 25 24 24 24 23 23 23 23 23 22 23 24 25 25 26 27 28 29 29 29 30 30 31 31 31 31
23 23 22 22 23 23 23 23 24 24 23 23 23 23 23 23 24 23 23 23 22 23 23 23 22 23 22 22 23 23 25 25 26 26 27 27 28 29 30 31 31 31 32
22 22 21 22 22 23 23 24 23 22 22 22 22 22 22 22 22 21 21 21 21 21 22 23 22 22 22 22 23 23 24 25 26 26 27 26 27 28 29 30 31 32 32
22 22 22 22 21 21 22 22 21 20 20 21 20 20 19 19 19 18 18 19 20 20 21 22 23 23 23 23 23 24 24 25 25 26 27 27 28 28 29 30 31 32 32
23 23 23 22 21 20 20 20 19 19 18 19 19 18 17 17 18 18 18 19 20 20 21 21 22 22 23 23 24 24 24 24 24 26 27 28 27 28 28 29 30 31 32
23 23 22 21 20 20 19 19 18 18 17 17 17 17 17 17 17 18 18 19 20 20 20 21 22 23 23 23 23 24 24 24 25 26 27 27 27 27 27 28 29 30 31
22 21 20 20 20 19 19 18 18 17 16 16 17 17 18 18 19 18 18 19 20 21 20 21 22 23 23 22 23 24 24 25 25 25 26 26 26 26 27 28 28 29 29
Wind_Direction
290 288 288 285 281 279 279 277 273 271 269 267 264 262 262 261 259 259 260 260 259 258 257 257 257 257 255 255 254 254 254 252 251 250 252 255 256 254 252 253 253 255 254
291 289 289 288 287 285 282 279 276 274 271 268 267 264 262 263 260 262 262 261 258 257 258 258 256 255 255 256 255 256 255 255 252 250 252 253 254 254 252 253 253 254 256
293 291 290 289 288 285 285 282 275 272 271 269 268 268 265 264 262 263 264 262 259 258 258 259 257 255 255 256 256 257 257 256 254 252 253 253 252 252 253 254 255 254 255
292 290 290 290 290 286 283 282 278 272 269 268 267 268 267 263 263 263 265 262 259 258 258 258 257 256 256 257 256 257 257 255 254 254 254 255 254 253 253 254 256 256 256
294 293 291 290 289 288 285 282 280 276 270 267 266 265 266 264 264 264 264 263 261 259 258 257 256 256 256 257 257 257 256 256 255 255 255 256 254 253 254 256 257 257 257
296 294 291 289 288 287 285 283 281 276 272 269 266 264 266 267 265 265 264 264 262 259 258 258 257 257 256 256 256 256 257 257 258 257 256 255 254 254 256 256 256 256 257
293 292 290 288 287 286 284 284 283 279 275 270 267 264 265 266 266 266 264 262 261 261 261 261 258 257 256 257 256 256 258 258 258 258 256 255 256 257 257 256 257 257 257
292 290 289 287 286 285 284 285 285 282 278 273 269 265 265 266 267 265 265 262 260 260 261 261 259 258 257 257 256 255 256 257 257 257 257 257 256 255 255 256 257 257 258
290 289 286 285 285 285 285 285 285 283 280 275 270 268 266 265 267 265 265 263 262 261 260 259 259 258 256 256 257 255 255 257 257 258 258 257 255 255 256 257 258 258 258
291 290 287 284 284 284 284 284 283 283 281 278 275 270 267 266 267 265 265 265 262 261 261 260 259 257 257 257 256 255 254 256 257 258 259 258 257 258 258 259 260 260 260
293 290 287 283 282 283 283 283 282 281 281 278 276 273 268 267 267 266 265 265 264 263 262 260 260 258 257 255 255 255 255 256 257 258 259 258 258 260 260 261 261 261 261
292 289 287 284 282 282 283 283 282 281 281 279 275 272 270 269 269 266 265 266 266 264 262 260 259 259 258 257 256 255 255 256 257 257 258 258 259 260 260 262 262 262 261
291 288 288 285 283 282 282 282 282 281 279 278 275 272 271 270 269 268 267 267 266 265 263 261 260 261 260 258 257 256 256 257 258 258 259 260 260 260 260 262 263 263 263
292 289 288 285 284 283 282 282 282 280 278 276 273 271 270 270 270 269 269 268 267 267 266 263 262 261 260 260 259 258 256 257 258 258 260 261 262 262 261 262 264 265 266
292 289 289 285 284 282 281 279 280 280 279 274 271 270 270 270 269 269 269 270 270 269 267 264 263 263 261 260 260 259 258 257 259 260 261 263 263 263 263 263 265 267 268
294 291 289 288 285 282 280 279 279 278 277 274 269 267 269 270 270 269 268 268 268 267 267 263 263 262 261 260 261 261 259 258 258 261 262 263 263 263 263 263 264 266 268
295 292 291 291 287 283 281 279 279 278 276 273 271 267 268 270 269 268 266 266 267 266 264 262 263 264 263 263 264 263 261 259 259 261 263 264 264 264 263 263 265 267 267
297 294 292 292 288 284 283 283 282 280 276 272 270 269 270 269 268 267 267 267 265 264 262 261 262 265 264 263 264 263 263 261 262 264 265 265 266 266 266 265 266 267 267
301 298 294 293 290 286 286 288 286 283 276 271 269 270 271 268 268 268 268 266 265 264 263 262 264 266 264 265 264 263 263 263 264 265 267 268 268 268 267 267 267 268 268
305 303 299 296 293 290 288 289 287 284 278 273 271 270 269 268 268 269 269 265 264 262 263 262 262 263 263 263 264 264 264 265 267 268 269 269 270 269 268 268 268 269 269
305 304 301 297 295 294 292 290 286 284 280 276 272 270 268 267 269 268 268 266 264 262 261 261 262 262 265 265 265 265 266 268 269 269 270 272 273 272 270 269 269 271 273
305 304 301 299 297 296 296 292 288 284 282 278 274 271 269 269 269 267 266 263 263 263 261 264 264 266 267 268 267 268 267 267 268 269 270 273 274 274 273 272 272 272 275
306 305 304 303 299 298 297 296 291 286 285 281 276 272 271 269 267 266 263 260 262 264 264 264 264 266 267 269 269 269 269 271 270 270 272 273 274 275 275 274 274 274 276
305 306 307 304 300 299 298 297 294 290 286 282 277 273 268 268 268 267 264 262 263 266 265 265 266 266 268 268 269 269 270 272 272 271 272 273 275 276 275 275 276 278 279
306 307 309 306 301 299 297 296 295 291 287 283 277 272 268 270 270 268 266 263 264 266 266 267 268 268 270 270 269 270 272 274 274 276 277 276 276 276 276 278 280 281 283
309 310 310 308 305 301 300 297 295 291 287 283 279 273 270 270 270 270 267 265 266 266 267 267 268 269 269 268 269 270 273 276 277 278 280 279 278 278 280 282 284 285 285
Height
5836 5836 5835 5835 5834 5834 5834 5834 5834 5834 5834 5835 5835 5836 5837 5838 5839 5840 5841 5842 5843 5844 5845 5846 5847 5848 5849 5850 5852 5853 5854 5855 5856 5858 5859 5861 5862 5863 5865 5866 5867 5868 5870
5832 5831 5831 5830 5830 5829 5829 5828 5828 5829 5829 5829 5830 5831 5831 5833 5834 5834 5836 5837 5838 5839 5840 5841 5842 5843 5845 5846 5847 5848 5849 5850 5851 5853 5854 5856 5857 5859 5860 5861 5863 5864 5866
5827 5826 5826 5825 5825 5824 5824 5823 5823 5823 5824 5824 5825 5825 5826 5827 5828 5829 5829 5831 5832 5833 5834 5835 5837 5838 5840 5841 5842 5843 5844 5845 5846 5848 5849 5850 5852 5854 5856 5856 5858 5860 5861
5822 5821 5820 5820 5819 5819 5819 5818 5818 5818 5818 5819 5819 5820 5820 5821 5822 5823 5823 5824 5826 5827 5828 5830 5831 5833 5834 5836 5837 5838 5839 5840 5841 5843 5844 5845 5847 5849 5850 5852 5854 5855 5856
5817 5816 5815 5814 5813 5813 5813 5813 5813 5812 5812 5812 5813 5814 5814 5815 5816 5817 5818 5818 5820 5821 5822 5824 5826 5827 5828 5830 5831 5832 5833 5835 5836 5837 5839 5840 5842 5843 5845 5847 5848 5850 5851
5812 5811 5810 5809 5808 5808 5807 5807 5807 5806 5806 5806 5807 5808 5808 5809 5810 5811 5812 5812 5813 5815 5816 5818 5819 5821 5822 5824 5825 5827 5828 5830 5831 5832 5834 5835 5836 5838 5839 5841 5843 5844 5846
5806 5805 5804 5803 5802 5802 5801 5801 5800 5800 5800 5800 5801 5801 5802 5803 5804 5805 5805 5806 5807 5809 5810 5811 5813 5815 5816 5818 5820 5821 5822 5824 5825 5826 5828 5829 5831 5832 5834 5836 5837 5839 5840
5800 5799 5798 5797 5796 5796 5796 5795 5794 5794 5793 5793 5794 5794 5795 5797 5797 5798 5799 5800 5801 5803 5804 5805 5807 5809 5810 5812 5814 5815 5816 5818 5819 5821 5822 5823 5825 5827 5828 5830 5831 5833 5834
5794 5793 5792 5791 5790 5790 5790 5789 5788 5787 5787 5787 5787 5788 5789 5790 5791 5792 5793 5794 5795 5796 5798 5799 5801 5802 5804 5806 5807 5808 5810 5812 5813 5815 5816 5817 5819 5821 5822 5824 5825 5826 5828
5787 5786 5785 5785 5784 5783 5783 5783 5782 5781 5781 5781 5780 5781 5782 5783 5784 5785 5786 5787 5788 5789 5791 5793 5794 5796 5798 5799 5801 5802 5803 5805 5807 5808 5810 5811 5813 5814 5816 5817 5818 5820 5821
5781 5780 5778 5778 5777 5777 5776 5776 5775 5774 5774 5774 5774 5774 5775 5776 5777 5778 5780 5781 5781 5782 5784 5786 5787 5789 5791 5792 5794 5795 5797 5798 5800 5802 5803 5805 5806 5808 5809 5810 5811 5813 5814
5774 5773 5772 5771 5770 5770 5769 5769 5768 5767 5767 5767 5767 5767 5768 5769 5770 5771 5772 5773 5774 5776 5777 5778 5780 5782 5783 5785 5787 5788 5790 5791 5793 5794 5796 5798 5799 5800 5802 5803 5804 5805 5806
5767 5766 5765 5764 5763 5763 5762 5761 5760 5760 5760 5760 5760 5760 5761 5762 5763 5763 5764 5765 5767 5768 5769 5771 5773 5774 5776 5778 5779 5781 5783 5784 5785 5787 5788 5790 5791 5793 5794 5795 5796 5797 5798
5761 5759 5758 5757 5756 5755 5754 5753 5753 5752 5752 5752 5752 5753 5753 5754 5755 5756 5757 5758 5759 5760 5761 5763 5765 5766 5768 5770 5771 5773 5775 5776 5777 5779 5780 5781 5783 5784 5785 5787 5788 5789 5790
5754 5752 5751 5750 5749 5747 5747 5746 5745 5745 5744 5744 5745 5745 5746 5747 5747 5748 5749 5750 5751 5752 5754 5755 5757 5758 5760 5762 5763 5765 5766 5768 5769 5770 5772 5773 5774 5775 5777 5778 5779 5780 5781
5747 5745 5744 5743 5741 5740 5739 5739 5738 5737 5737 5737 5737 5738 5738 5739 5740 5740 5741 5742 5743 5744 5746 5748 5749 5750 5752 5754 5755 5757 5758 5760 5761 5762 5763 5764 5765 5766 5768 5769 5770 5771 5772
5741 5739 5737 5735 5734 5733 5732 5731 5730 5729 5728 5729 5729 5730 5731 5731 5732 5733 5733 5734 5735 5736 5738 5740 5741 5743 5744 5746 5747 5749 5750 5752 5753 5754 5755 5755 5756 5757 5758 5759 5761 5762 5762
5734 5732 5730 5728 5727 5726 5725 5723 5722 5722 5721 5721 5721 5722 5723 5723 5724 5724 5725 5726 5726 5728 5730 5732 5734 5735 5737 5738 5740 5741 5742 5743 5745 5745 5746 5747 5748 5748 5749 5750 5751 5752 5752
5729 5726 5724 5722 5720 5719 5718 5717 5715 5714 5714 5714 5714 5715 5715 5715 5716 5716 5717 5718 5719 5720 5722 5724 5727 5728 5729 5731 5732 5733 5734 5736 5736 5737 5738 5739 5739 5739 5740 5741 5742 5742 5743
5723 5721 5718 5716 5714 5713 5711 5710 5709 5707 5707 5707 5707 5707 5708 5708 5709 5709 5710 5710 5712 5713 5715 5717 5719 5721 5722 5723 5725 5726 5727 5728 5729 5729 5730 5730 5731 5731 5731 5732 5733 5733 5733
5718 5716 5713 5711 5709 5707 5705 5703 5702 5701 5700 5700 5700 5700 5701 5701 5701 5702 5703 5704 5705 5707 5709 5710 5712 5714 5715 5716 5718 5719 5719 5720 5721 5721 5721 5722 5722 5722 5722 5723 5723 5724 5723
5714 5711 5709 5706 5703 5701 5699 5697 5695 5694 5693 5693 5693 5693 5694 5694 5695 5695 5696 5698 5699 5701 5703 5704 5706 5707 5709 5710 5711 5711 5712 5713 5713 5714 5713 5714 5713 5713 5713 5714 5714 5713 5713
5709 5706 5703 5701 5698 5696 5693 5691 5689 5688 5687 5687 5686 5687 5687 5688 5689 5689 5691 5692 5694 5695 5697 5698 5699 5701 5702 5703 5704 5704 5705 5705 5705 5705 5705 5706 5705 5705 5705 5704 5704 5703 5702
5704 5701 5698 5695 5693 5690 5688 5686 5684 5683 5682 5681 5681 5681 5682 5683 5683 5684 5685 5687 5688 5689 5691 5692 5693 5694 5695 5696 5696 5697 5697 5697 5697 5697 5697 5697 5697 5696 5695 5695 5694 5693 5692
5700 5697 5694 5691 5688 5686 5684 5682 5680 5678 5677 5676 5676 5676 5677 5678 5679 5679 5680 5681 5683 5683 5684 5686 5687 5688 5688 5689 5689 5689 5690 5690 5690 5690 5689 5688 5688 5687 5686 5686 5684 5683 5681
5694 5692 5689 5686 5683 5681 5679 5677 5675 5674 5673 5672 5671 5671 5672 5672 5673 5674 5675 5676 5677 5678 5678 5679 5680 5681 5681 5682 5682 5682 5682 5682 5682 5682 5681 5680 5679 5678 5678 5677 5675 5673 5672